Regional Weather Roundup
Issued by NWS Green Bay, WI

Home | Current Version | Previous Version | Text Only | Print | Product List | Glossary On
Versions: 1 2 3 4 5 6 7 8 9 10 11 12 13 14 15 16 17 18 19 20 21 22 23 24 25 26 27 28 29 30 31 32 33 34 35 36 37 38 39 40 41 42 43 44 45 46 47 48 49 50
000
ASUS43 KGRB 301211
RWRGRB

NORTH-CENTRAL AND NORTHEAST WISCONSIN REGIONAL WEATHER ROUNDUP
NATIONAL WEATHER SERVICE GREEN BAY WI
700 AM CDT SUN AUG 30 2015

WIZ005-009-010>012-018-019-301300-
NORTH CENTRAL WISCONSIN

CITY           SKY/WX    TMP DP  RH WIND       PRES   REMARKS
IRONWOOD       PTCLDY    63  61  94 SW6       29.97S
MANITOWISH WTR CLOUDY    60  60 100 SW9       30.04S
ARBOR VITAE    CLOUDY    60  59  97 SW5       30.05S FOG
EAGLE RIVER    CLOUDY    59  59 100 SW5       30.05S FOG
LAND O LAKES   CLOUDY    60  60  99 SW5       30.06R FOG
RHINELANDER    FOG       58  57  97 SW3       30.07R VSB 1/4
PHILLIPS       FOG       57  57 100 CALM      30.04S VSB 1/4
ANTIGO         FOG       51  51 100 CALM      30.08R VSB 1/4
TOMAHAWK       FOG       53  52  97 CALM      30.07R VSB 1/4
MERRILL        FOG       52  52 100 CALM      30.08R VSB<1/4
$$

WIZ013-073-301300-
NORTHEAST WISCONSIN

CITY           SKY/WX    TMP DP  RH WIND       PRES   REMARKS
IRON MOUNTAIN  CLOUDY    60  59  96 CALM      30.04R FOG
MARINETTE      CLEAR     54  52  94 CALM      30.05R
OCONTO         MOCLDY    52  52 100 CALM      30.06R
$$

WIZ017-030-035>037-045-301300-
CENTRAL WISCONSIN

CITY           SKY/WX    TMP DP  RH WIND       PRES   REMARKS
MEDFORD        FOG       51  51 100 CALM      30.07R VSB<1/4
WAUSAU         FOG       52  51  97 CALM      30.06R VSB 1/4
MOSINEE        FOG       52  52 100 CALM      30.07R VSB 1/4
MARSHFIELD     FOG       54  52  93 CALM      30.07R VSB 1/4
WISC RAPIDS    CLEAR     56  54  93 CALM      30.08R FOG
STEVENS POINT  MOCLDY    51  51 100 CALM      30.07R FOG
WAUPACA        CLEAR     53  51  95 CALM      30.08R
SHAWANO        FOG       53  52  95 CALM      30.07R VSB 3/4
CLINTONVILLE   FOG       52  50  93 CALM      30.07R VSB 1/4
WAUTOMA        FOG       55  55 100 CALM      30.08R VSB<1/4
$$

WIZ038-039-048-051-301300-
FOX VALLEY

CITY           SKY/WX    TMP DP  RH WIND       PRES   REMARKS
NWS GREEN BAY  FOG       56  55  97 CALM      30.07R VSB 1/4
APPLETON       MOCLDY    55  55 100 CALM      30.06R FOG
OSHKOSH        FOG       55  55 100 CALM      30.07R VSB 1/2
FOND DU LAC    FOG       62  60  93 CALM      30.08R VSB<1/4
$$

WIZ022-050-052-301300-
EAST CENTRAL WISCONSIN

CITY           SKY/WX    TMP DP  RH WIND       PRES   REMARKS
EPHRAIM        FOG       57  57  99 CALM      30.05S VSB<1/4
STURGEON BAY   CLOUDY    61  55  82 SW3       30.09R VSB<1/4
MANITOWOC      CLOUDY    57  57 100 MISG      30.08R FOG
SHEBOYGAN      CLOUDY    56  56 100 NW3       30.08R FOG
$$

LMZ563-521-522-541>543-301300-
LAKESHORE

STATION/POSITION TIME  TEMP    WIND        PRES    VSBY  WAVE
                       AIR SEA DIR/SP/G                  HT/PER
                 (UTC) (F)     (DEG/KT/KT) (MB)    (MI)  (FT/S)
SHEBOYGAN LKSHOR 1200   51     360/  5/  5 1018.9R
ALGOMA MARINA    1114             CALM       N/A
NORTHPORT PIER   1204   63      CALM  /  5 1017.6R
N MID LAKE BUOY  1150   63 64  220/  6/  6 1017.6R         0
S GREEN BAY BUOY 1200   59 62  220/  4/  4 1019.8R
SISTER BAY LKSHO 1119   60     240/  4/  5   N/A
CHAMBERS ISLAND  1100   58      CALM  /  3 1017.6R
$$



USA.gov is the U.S. government's official web portal to all federal, state and local government web resources and services.